| time (UTC) | temp F | wind direction | speed knots | gust knots | rain 1hr in | rain 24hr in | rain mn in | humidity % | barometer mb |
| 20260505041602 | 68 | 217 | 0.0 | 3.5 | 0.00 | 0.00 | 0.00 | 67 | 1005.6 |
| 20260505040056 | 68 | 204 | 0.9 | 5.2 | 0.00 | 0.00 | 0.00 | 66 | 1005.6 |
| 20260505034554 | 69 | 165 | 3.5 | 7.8 | 0.00 | 0.00 | 0.00 | 65 | 1005.6 |
| 20260505033053 | 70 | 0 | 1.7 | 5.2 | 0.00 | 0.00 | 0.00 | 63 | 1005.8 |
| 20260505031557 | 71 | 158 | 2.6 | 7.0 | 0.00 | 0.00 | 0.00 | 62 | 1005.8 |
| 20260505030058 | 71 | 169 | 4.3 | 15.6 | 0.00 | 0.00 | 0.00 | 61 | 1005.4 |
| 20260505024601 | 71 | 163 | 2.6 | 9.6 | 0.00 | 0.00 | 0.00 | 60 | 1005.2 |
| 20260505023056 | 71 | 190 | 4.3 | 7.8 | 0.00 | 0.00 | 0.00 | 59 | 1005.1 |
| 20260505021558 | 72 | 222 | 1.7 | 10.4 | 0.00 | 0.00 | 0.00 | 60 | 1004.9 |
| 20260505020051 | 72 | 182 | 2.6 | 8.7 | 0.00 | 0.00 | 0.00 | 60 | 1004.5 |
| 20260505014555 | 72 | 173 | 1.7 | 7.8 | 0.00 | 0.00 | 0.00 | 60 | 1004.2 |
| 20260505013107 | 72 | 237 | 4.3 | 9.6 | 0.00 | 0.00 | 0.00 | 58 | 1004.1 |
| 20260505011600 | 73 | 237 | 2.6 | 7.8 | 0.00 | 0.00 | 0.00 | 58 | 1004.0 |
| 20260505004551 | 74 | 220 | 1.7 | 7.0 | 0.00 | 0.00 | 0.00 | 58 | 1003.7 |
| 20260505003056 | 74 | 175 | 2.6 | 7.8 | 0.00 | 0.00 | 0.00 | 57 | 1003.7 |
| 20260505001549 | 75 | 190 | 3.5 | 8.7 | 0.00 | 0.00 | 0.00 | 55 | 1003.8 |
| 20260505000100 | 76 | 196 | 4.3 | 11.3 | 0.00 | 0.00 | 0.00 | 53 | 1003.8 |
| 20260504234552 | 77 | 243 | 3.5 | 10.4 | 0.00 | 0.00 | 0.00 | 54 | 1003.8 |
| 20260504233104 | 77 | 167 | 4.3 | 14.8 | 0.00 | 0.00 | 0.00 | 54 | 1003.8 |
| 20260504231553 | 78 | 214 | 7.8 | 13.9 | 0.00 | 0.00 | 0.00 | 52 | 1003.9 |
| 20260504230100 | 78 | 224 | 6.1 | 16.5 | 0.00 | 0.00 | 0.00 | 51 | 1004.0 |
| 20260504224552 | 79 | 193 | 3.5 | 12.2 | 0.00 | 0.00 | 0.00 | 53 | 1003.9 |
| 20260504223102 | 79 | 192 | 6.1 | 13.0 | 0.00 | 0.00 | 0.00 | 52 | 1003.9 |
| 20260504221555 | 79 | 240 | 7.8 | 13.9 | 0.00 | 0.00 | 0.00 | 50 | 1004.0 |
| 20260504220100 | 79 | 194 | 5.2 | 13.9 | 0.00 | 0.00 | 0.00 | 51 | 1004.1 |
| 20260504214614 | 79 | 234 | 9.6 | 20.9 | 0.00 | 0.00 | 0.00 | 50 | 1004.1 |
| 20260504213125 | 79 | 245 | 9.6 | 20.0 | 0.00 | 0.00 | 0.00 | 50 | 1004.3 |
| 20260504211555 | 80 | 244 | 8.7 | 20.9 | 0.00 | 0.00 | 0.00 | 49 | 1004.5 |
| 20260504210051 | 80 | 167 | 7.8 | 18.2 | 0.00 | 0.00 | 0.00 | 49 | 1004.4 |
| 20260504204601 | 79 | 217 | 10.4 | 21.7 | 0.00 | 0.00 | 0.00 | 48 | 1004.6 |
| 20260504203103 | 79 | 165 | 10.4 | 20.0 | 0.00 | 0.00 | 0.00 | 49 | 1004.6 |
| 20260504201616 | 80 | 200 | 9.6 | 21.7 | 0.00 | 0.00 | 0.00 | 49 | 1004.7 |
| 20260504200054 | 80 | 228 | 8.7 | 26.1 | 0.00 | 0.00 | 0.00 | 49 | 1004.8 |
| 20260504194555 | 79 | 327 | 9.6 | 22.6 | 0.00 | 0.00 | 0.00 | 48 | 1004.9 |
| 20260504193102 | 80 | 187 | 8.7 | 20.9 | 0.00 | 0.00 | 0.00 | 49 | 1005.1 |
| 20260504191601 | 79 | 215 | 9.6 | 17.4 | 0.00 | 0.00 | 0.00 | 49 | 1005.2 |
| 20260504190113 | 80 | 159 | 6.1 | 17.4 | 0.00 | 0.00 | 0.00 | 48 | 1005.4 |
| 20260504184611 | 79 | 85 | 7.8 | 21.7 | 0.00 | 0.00 | 0.00 | 49 | 1005.5 |
| 20260504183050 | 79 | 229 | 12.2 | 20.9 | 0.00 | 0.00 | 0.00 | 49 | 1005.8 |
| 20260504181552 | 78 | 229 | 7.0 | 14.8 | 0.00 | 0.00 | 0.00 | 50 | 1005.8 |
| 20260504180054 | 76 | 235 | 13.0 | 26.1 | 0.00 | 0.00 | 0.00 | 49 | 1006.0 |
| 20260504174549 | 77 | 171 | 7.8 | 20.0 | 0.00 | 0.00 | 0.00 | 49 | 1006.0 |
| 20260504173049 | 78 | 221 | 12.2 | 21.7 | 0.00 | 0.00 | 0.00 | 49 | 1006.0 |
| 20260504171550 | 78 | 246 | 8.7 | 19.1 | 0.00 | 0.00 | 0.00 | 50 | 1005.8 |
| 20260504140113 | 68 | 188 | 8.7 | 20.0 | 0.00 | 0.00 | 0.00 | 56 | 1007.4 |
| 20260504120110 | 63 | 167 | 5.2 | 10.4 | 0.00 | 0.00 | 0.00 | 60 | 1007.8 |
| 20260504081552 | 65 | 219 | 5.2 | 11.3 | 0.00 | 0.00 | 0.00 | 58 | 1008.5 |
| 20260504050107 | 66 | 175 | 5.2 | 9.6 | 0.00 | 0.00 | 0.00 | 57 | 1009.7 |
| 20260504044557 | 66 | 167 | 5.2 | 12.2 | 0.00 | 0.00 | 0.00 | 56 | 1009.7 |
| 20260504043052 | 67 | 168 | 5.2 | 11.3 | 0.00 | 0.00 | 0.00 | 55 | 1009.9 |